Dewpoint
3 3 3 3 2 2 2 1 1 1 1 2 2 2 2 2 4 6 7 7 7 6 4 1 0 2 1 1 -2 -1 2 2 4 1 -3 -4 -4 -5 -5 -8 -9 -8 -7 -7 -7 -5 -4
3 3 3 2 2 2 2 1 1 0 1 0 1 1 2 2 4 5 7 8 7 4 2 1 1 1 2 -1 -4 -1 0 2 -1 -1 -3 -3 -3 -4 -4 -5 -5 -7 -7 -7 -8 -7 -8
3 3 1 2 2 2 2 1 1 1 0 1 -0 -1 -4 1 4 3 6 7 6 3 1 1 0 2 2 -2 -5 -3 -1 -2 -2 -2 -2 -3 -3 -2 -3 -3 -4 -3 -2 -3 -4 -5 -6
1 2 2 1 2 2 2 2 1 0 0 1 1 -0 -5 -3 4 6 6 6 5 3 -0 -1 2 3 1 -1 -2 -3 -3 -3 -1 -1 -1 -1 -1 -2 -2 -2 -1 -1 -1 1 -3 -4 -6
0 2 2 2 1 2 2 2 2 0 0 -1 1 -1 -6 -8 2 4 5 5 4 -1 -2 0 3 3 -2 -3 -5 -4 -4 -2 -2 -1 -1 -1 -1 -0 -1 1 1 -1 2 -1 -2 -4 -4
1 2 0 2 1 1 1 2 1 1 1 -0 -0 -2 -5 3 -2 4 5 4 1 2 2 3 2 1 -2 -3 -2 -3 -2 -2 -2 -1 -1 0 -0 1 1 2 0 1 1 3 2 -3 -5
1 1 0 -1 2 -0 1 2 1 1 1 -0 -1 -2 -2 4 2 3 5 3 3 3 2 -0 -1 -3 -3 -3 -3 -1 -2 -1 -1 -2 -1 -2 2 2 1 -0 -1 -1 2 1 -1 -5 -4
1 2 -1 1 1 1 0 1 1 1 1 -1 -3 -2 -3 2 3 4 3 2 1 1 1 -0 -1 -2 -1 -1 -1 -1 -1 -1 -1 1 -0 2 3 -1 -2 -0 1 3 3 2 -0 -2 -3
1 1 1 1 1 1 1 0 1 1 1 -1 -3 -3 -4 2 3 3 3 1 -1 0 -0 0 -1 -0 -0 0 -1 -0 0 1 2 4 4 4 2 1 2 2 2 3 2 1 3 3 -2
1 1 0 -0 1 1 1 1 0 -0 -1 -2 -2 -4 -2 2 3 3 3 -0 -1 0 5 0 0 0 1 0 1 0 1 2 3 4 4 4 1 3 3 2 1 2 -1 0 3 4 6
1 1 -0 -2 0 0 1 0 0 -1 -1 -2 -2 3 3 2 2 3 3 1 -1 -1 6 -1 -0 0 1 2 2 2 2 2 4 4 3 4 4 1 1 1 -1 -1 -0 6 3 6 4
0 0 -1 -1 -1 -1 -0 -0 -1 -1 -0 -1 -4 1 3 3 3 3 2 0 -1 4 4 1 0 1 1 1 1 3 3 3 3 3 3 3 2 3 2 2 1 1 4 5 4 6 8
2 0 -2 -1 0 -0 0 -1 -0 -0 -1 -0 -5 1 3 3 2 1 -1 -0 4 5 -4 1 2 -0 0 2 1 2 5 5 5 6 5 5 4 3 3 5 3 4 5 7 8 8 9
4 3 -1 -2 0 -0 -1 1 0 -1 -1 -2 -4 -1 3 3 3 -0 0 2 3 -2 1 -2 -1 -0 2 -0 0 0 5 5 3 3 6 6 4 5 4 5 5 6 7 8 9 9 9
5 3 1 -1 -0 -1 -1 -0 0 -1 -2 -2 -1 -4 1 3 2 0 2 5 4 2 -2 -0 -1 1 1 -0 0 0 2 3 2 1 6 8 6 3 4 4 4 5 6 3 8 3 7
4 2 3 -1 -0 -1 -1 -2 -2 -2 -3 0 -3 2 2 2 1 0 4 2 1 -3 -2 -2 -0 -2 -1 -1 0 -0 2 2 2 1 2 3 6 3 3 3 4 4 1 5 7 8 8
2 1 2 -2 -1 -1 -3 -2 -3 -4 -0 1 0 1 2 2 0 2 5 2 -1 -2 0 0 -1 -2 -2 -1 -0 0 2 2 1 1 1 2 5 4 3 4 4 4 3 2 1 1 2
3 0 0 -2 -2 -1 -3 -3 -4 -4 1 0 2 2 1 1 2 1 2 0 -0 -1 0 0 -1 -1 -1 -1 0 1 2 2 1 1 2 -0 3 6 4 1 -1 2 1 0 5 5 3
3 2 0 -1 0 1 -1 -2 -2 -3 1 -0 2 1 1 2 4 1 -1 -0 0 0 0 1 -0 -1 -1 -0 2 1 0 1 1 1 2 1 2 5 4 2 1 1 0 1 1 5 2
2 3 1 -1 0 1 -0 -3 -1 1 -0 1 1 2 1 2 1 -1 1 -0 -1 1 0 -1 -1 -1 -2 -1 -1 1 0 0 1 -0 -0 1 2 3 4 4 3 3 1 1 4 4 3
2 1 1 -1 -1 -2 -2 -3 -1 1 0 4 1 1 0 2 0 -1 1 -0 -1 0 -0 -1 -1 -1 -1 -1 -1 0 -1 -1 -1 -1 -1 1 3 1 0 1 1 -0 1 1 2 1 3
1 2 1 0 -1 -1 -2 -1 0 1 1 4 2 0 0 -1 -2 -1 1 1 -2 -1 1 -1 0 -1 -0 1 1 2 0 1 1 -0 -1 -1 3 1 1 -2 -2 -1 -1 0 1 1 1
1 1 2 1 0 2 2 1 0 1 2 4 1 -1 -0 -1 -2 -1 0 0 -1 -0 0 -0 -0 -1 1 1 -1 -1 -1 -1 -1 0 0 -0 1 2 3 -0 -2 1 -1 -1 -1 -1 0
-0 0 1 1 2 2 2 2 2 2 3 3 1 0 -2 -0 -2 -1 -1 0 -1 0 1 -0 1 0 -0 -1 -1 -1 -2 -2 -2 -2 -2 -0 -0 1 2 -2 1 -1 -3 -4 -2 -1 -0
-2 -1 1 1 1 2 2 -3 -4 -3 -3 -1 -1 -0 -1 -1 -2 -2 -1 0 1 1 1 1 2 0 -1 -0 1 -0 1 -0 -2 -2 -1 -2 -1 -1 2 -2 -4 -2 -2 -2 -2 -0 -2
-1 -0 1 1 3 0 2 1 -3 -3 -3 -2 -2 -2 -0 -2 -2 -2 -1 1 0 0 1 2 1 -0 0 0 -0 -0 -1 -3 -2 -1 -2 -1 -2 -1 -1 0 -3 -2 -3 -3 -4 -0 -1
-4 -0 0 0 0 2 1 1 1 -2 -3 -3 -3 -1 -0 -1 -2 -0 0 1 1 -0 1 1 1 1 -1 1 1 1 -1 -3 -0 -2 -1 -0 -0 0 1 0 -2 -2 -2 -3 0 0 -1
-4 0 1 0 0 2 2 1 1 1 -1 -2 -4 -2 -1 0 -1 -0 0 1 1 1 1 1 1 1 1 2 1 -0 -1 -1 -1 -3 -2 -2 -1 0 -1 0 -0 -2 -2 -1 -1 -1 -1
-2 -0 0 0 1 1 2 3 1 1 1 -0 -1 -3 -2 0 1 -0 0 0 0 0 1 1 2 1 2 2 -0 -1 -1 -2 -3 -3 -2 -1 -2 -1 -2 -0 -3 -3 -2 -2 -2 -2 -2
Wind_Speed
30 31 30 30 28 26 23 21 19 19 18 18 15 17 17 16 10 13 14 20 15 11 9 6 7 4 4 1 2 4 7 6 5 2 1 4 5 8 9 8 11 11 12 20 23 24 26
32 33 33 32 29 26 25 22 20 18 16 18 21 17 18 11 8 14 20 23 13 9 7 6 9 5 3 4 5 1 7 4 3 1 1 2 4 8 9 11 11 15 18 19 22 23 24
34 36 34 35 30 28 24 22 21 19 17 16 19 20 18 9 9 12 20 19 14 7 7 7 9 6 3 5 5 6 7 5 3 2 1 3 5 6 9 8 7 13 13 14 20 19 18
37 36 36 34 31 28 25 20 18 16 17 17 18 19 18 9 3 11 19 19 11 7 8 9 10 6 2 5 6 9 5 5 4 2 1 3 4 9 14 9 8 12 12 13 9 18 23
39 37 35 31 30 28 24 18 16 18 16 17 18 18 18 10 14 4 16 16 9 9 12 14 11 4 3 2 6 6 7 5 6 4 5 7 7 11 6 4 6 9 8 12 17 16 14
38 36 33 31 27 25 23 19 15 15 14 15 18 16 15 19 19 16 21 11 14 13 14 10 5 1 3 2 5 6 6 6 7 6 7 9 7 3 3 4 5 5 8 7 15 15 14
39 37 39 30 29 27 21 16 14 13 11 13 16 14 8 18 22 24 19 22 13 5 7 5 4 5 7 3 2 3 5 3 6 9 11 15 4 9 12 14 16 16 17 18 20 12 11
38 39 34 30 24 22 20 17 16 13 6 10 11 10 5 12 17 20 23 8 2 6 5 6 5 3 2 2 2 5 6 4 7 10 9 4 12 13 13 10 14 16 15 16 19 8 10
35 34 32 28 21 21 17 16 14 4 6 7 7 9 5 1 9 12 11 3 10 8 4 4 5 2 2 4 2 2 8 3 5 8 9 8 4 3 7 11 16 13 15 13 9 11 9
32 31 24 23 21 18 9 6 4 3 1 2 7 4 4 7 12 8 14 9 10 4 3 3 5 4 3 3 1 5 7 3 3 3 3 7 9 9 9 13 13 13 7 9 9 7 7
30 27 25 18 14 16 8 2 4 4 4 2 5 15 20 14 5 10 3 10 7 2 3 4 4 4 4 2 2 5 7 6 3 2 3 2 3 3 6 8 8 8 6 14 12 6 11
34 18 19 16 14 10 7 8 10 8 7 4 8 5 21 11 5 4 14 10 4 2 2 2 5 5 4 7 3 7 5 5 4 3 6 6 4 3 4 12 8 6 6 1 3 5 4
27 22 10 12 12 10 8 10 13 11 8 9 9 8 12 6 8 12 16 4 1 2 3 3 3 3 5 4 6 7 6 4 2 3 1 3 3 3 8 7 1 4 2 3 0 2 2
41 20 2 7 8 10 11 12 10 11 10 10 10 8 7 5 5 15 5 2 4 4 2 2 2 4 4 1 2 2 7 3 7 1 3 4 3 4 3 3 3 4 3 3 3 2 2
38 16 6 9 11 13 12 17 16 13 13 13 10 12 9 8 6 12 4 2 3 4 1 3 3 5 5 4 3 4 6 5 4 5 1 3 4 4 10 9 5 4 3 2 3 5 3
31 14 13 13 14 11 12 14 16 13 15 16 16 16 13 8 15 2 3 5 3 3 4 3 2 3 4 4 4 2 3 5 4 3 1 5 4 4 6 4 5 6 6 1 2 3 4
29 18 18 17 14 10 13 15 16 19 19 21 15 8 5 6 8 4 2 4 5 4 5 5 6 1 4 3 4 3 6 3 6 5 5 3 3 3 3 5 5 5 5 4 1 2 1
34 21 19 15 14 15 20 21 21 21 24 16 10 4 7 9 2 4 4 3 2 4 0 3 4 6 6 5 5 3 4 5 10 8 5 3 4 2 2 3 2 5 6 5 3 7 5
34 20 15 17 15 18 20 21 22 21 20 8 7 6 6 8 2 2 2 3 3 4 5 6 4 5 4 4 2 5 4 5 7 5 5 5 4 3 3 2 2 5 9 6 2 2 6
34 25 11 11 12 15 17 20 18 24 11 10 5 2 2 2 6 4 0 2 3 1 1 5 2 5 2 4 4 4 4 1 7 4 5 4 5 4 2 2 3 5 10 10 4 5 10
29 25 14 7 6 10 17 19 17 19 12 8 3 2 4 2 3 4 3 4 2 3 1 4 1 7 5 5 3 4 4 1 4 1 2 4 3 4 3 4 1 5 7 12 11 7 7
20 23 18 14 7 6 8 8 11 15 7 9 4 3 3 3 6 4 2 1 1 2 5 4 6 6 10 6 6 5 6 5 4 7 3 3 1 1 1 6 3 6 8 8 9 11 12
12 14 16 12 13 13 7 7 7 6 10 6 8 3 4 2 4 3 4 3 2 2 3 4 8 3 6 4 7 6 4 2 2 5 6 4 1 2 2 4 6 1 4 6 5 5 1
6 5 7 8 4 6 2 2 6 12 18 15 10 5 4 2 3 3 2 1 3 3 3 3 8 4 1 2 6 6 2 2 3 5 5 4 2 1 3 4 2 3 2 1 6 5 6
4 2 5 3 6 3 1 2 3 6 9 12 8 2 4 1 8 6 3 3 4 2 2 3 2 3 2 5 3 3 2 2 1 2 4 4 2 1 2 1 2 4 4 4 1 4 4
5 4 4 5 8 9 7 2 4 11 7 5 9 7 3 2 5 6 8 6 4 3 4 1 2 4 3 2 2 1 1 1 1 2 2 5 3 1 1 1 2 2 4 4 3 0 7
5 6 8 11 11 14 13 12 7 7 11 9 8 2 2 4 4 5 5 4 1 1 3 3 3 2 2 2 1 1 1 1 1 3 1 1 2 3 4 3 2 5 7 4 2 5 11
7 8 10 13 12 14 18 16 11 8 8 11 10 14 5 4 6 10 5 2 3 2 2 5 3 3 1 1 0 0 2 0 2 2 2 2 1 4 1 2 4 12 4 4 5 12 12
7 9 8 7 6 8 9 16 15 10 9 8 12 11 9 5 6 11 9 9 8 4 2 6 0 1 1 1 1 1 3 2 2 3 1 2 3 2 2 4 1 20 4 8 8 10 9
Wind_Direction
319 316 309 305 302 298 296 292 293 300 304 321 314 314 312 306 270 227 237 231 246 246 258 243 193 158 109 138 307 203 141 138 128 101 308 306 300 288 261 271 280 271 281 280 282 276 280
320 317 309 307 305 301 299 297 291 296 296 315 320 314 311 300 260 244 210 223 235 239 233 198 169 153 141 140 125 172 146 128 164 142 322 295 283 316 323 306 301 300 300 294 290 287 278
322 316 314 312 308 301 297 295 297 292 299 301 314 322 322 284 297 244 214 204 214 207 211 183 156 132 200 107 134 180 170 156 188 221 312 327 297 319 315 304 317 319 305 291 265 262 267
322 321 311 307 305 305 303 294 293 294 290 298 304 317 326 285 343 169 212 210 193 202 189 179 147 134 222 217 183 188 171 179 209 212 271 295 299 278 273 295 306 286 283 271 255 246 239
326 319 318 315 311 311 307 296 295 296 297 295 299 313 320 278 232 245 180 190 177 141 143 137 144 154 132 305 179 191 184 204 220 223 228 252 258 253 239 247 272 234 268 256 279 233 238
328 324 321 318 313 311 309 300 294 289 294 285 292 306 315 293 225 187 185 164 125 117 123 123 129 180 208 137 148 154 181 215 241 224 231 246 234 278 235 228 237 239 279 281 274 271 225
329 327 324 312 314 306 302 295 290 291 282 282 285 303 309 350 175 188 182 132 127 119 176 167 171 91 139 158 200 183 186 207 239 248 246 230 220 214 224 229 254 278 282 278 282 268 276
333 329 336 327 308 306 308 304 315 294 271 277 297 297 273 38 166 181 160 135 183 126 140 179 113 243 208 184 206 192 175 189 220 229 245 244 243 244 260 281 279 263 271 268 283 316 253
337 336 333 338 338 319 306 306 305 258 257 283 286 279 262 51 154 150 177 173 140 134 139 140 208 222 124 180 246 179 178 216 263 241 228 244 237 12 220 252 279 256 250 255 259 315 262
350 347 346 350 351 344 343 -0 153 156 222 252 299 296 214 195 183 180 207 158 150 124 118 122 203 133 136 182 352 200 190 228 183 285 280 254 270 268 271 269 262 266 307 267 246 258 244
344 353 355 349 1 7 42 77 109 113 147 70 83 85 132 180 199 195 212 154 143 25 115 190 129 157 162 170 301 173 184 161 241 229 203 51 267 224 243 245 262 256 276 280 247 259 251
352 346 2 5 6 10 53 105 124 138 128 80 98 110 142 111 112 171 142 149 124 41 115 195 139 178 190 200 228 141 151 215 242 249 209 245 251 248 254 296 272 340 325 267 242 225 198
320 356 7 20 25 33 71 112 122 133 109 93 107 80 163 70 91 132 152 117 116 13 246 155 178 173 235 174 197 203 172 208 268 295 293 232 223 239 228 307 68 48 258 233 136 37 39
1 302 2 68 53 50 78 129 136 126 103 99 119 114 144 71 87 151 139 255 52 91 51 58 115 196 256 152 187 252 167 198 201 265 307 4 319 335 50 198 252 266 271 13 29 57 57
9 4 143 126 100 91 104 111 130 118 109 109 114 109 90 103 138 160 327 25 31 28 21 121 163 247 166 179 282 237 93 19 69 25 9 341 274 264 228 258 280 336 62 241 297 141 96
21 44 143 147 120 115 122 129 127 130 124 114 116 97 88 109 149 201 269 78 88 14 344 290 284 312 79 38 209 285 78 14 352 67 8 347 303 231 283 269 233 234 314 207 198 10 43
33 73 116 149 127 134 157 145 138 135 127 122 94 75 77 134 148 294 32 61 73 57 10 332 352 37 70 59 353 43 14 80 3 330 277 240 254 303 256 31 343 341 353 328 275 229 83
36 80 92 129 123 130 139 144 137 135 130 128 78 71 102 116 288 269 47 8 301 21 246 275 280 13 22 9 25 89 74 353 356 330 315 58 297 4 264 104 242 259 330 336 67 340 34
45 43 100 118 123 128 138 140 138 135 141 109 74 88 134 16 359 59 135 95 4 10 26 344 37 18 339 33 84 41 56 313 6 14 360 341 350 332 314 129 347 7 359 343 345 322 7
28 56 61 127 132 144 151 144 134 133 104 63 100 106 278 346 292 302 63 55 113 116 323 327 332 259 303 65 46 59 58 41 317 15 315 283 38 37 119 142 295 344 6 9 57 64 79
27 31 64 120 107 151 151 147 145 150 68 32 56 125 199 160 255 73 5 343 102 49 7 315 44 15 347 33 81 59 24 261 196 326 287 24 67 33 56 84 345 31 34 19 48 108 86
28 25 38 59 100 123 143 143 153 161 5 3 355 145 225 159 136 151 161 203 148 97 358 15 61 23 33 58 30 14 338 10 43 311 33 323 122 348 356 3 65 64 34 61 17 70 90
41 35 25 59 79 66 75 134 154 183 327 325 345 164 317 209 197 215 178 123 143 324 123 23 332 342 63 30 11 7 44 68 49 356 343 6 155 21 304 329 309 104 18 51 99 32 81
20 71 48 14 103 103 101 249 269 280 281 285 281 252 253 214 221 215 137 314 193 56 356 54 11 346 33 353 315 268 261 299 67 19 6 330 47 324 282 325 16 192 51 2 106 106 97
342 304 134 107 325 246 228 67 24 298 276 256 235 224 292 181 215 217 185 229 101 154 61 62 22 142 266 322 298 287 231 246 138 32 1 3 301 23 52 271 270 159 182 177 192 163 165
297 292 267 200 205 274 247 234 11 20 4 289 271 262 269 222 224 205 185 200 202 182 164 102 10 145 6 266 265 286 355 341 280 248 282 311 295 45 36 298 252 106 115 88 93 142 148
280 280 251 245 225 214 250 256 283 327 359 6 4 301 296 296 251 179 207 197 199 318 83 137 169 231 308 306 298 317 350 82 272 293 126 271 284 222 256 257 296 131 131 110 87 220 153
286 292 269 250 243 232 223 244 251 273 305 346 13 5 296 305 258 199 201 269 205 241 177 136 125 221 222 263 185 250 282 100 315 224 253 258 197 210 149 261 291 133 100 191 150 136 153
292 303 282 242 235 214 219 233 242 262 290 307 346 5 350 287 264 220 227 219 207 202 130 166 133 356 116 332 288 336 251 180 258 274 315 290 190 236 200 224 123 174 95 145 161 171 170
Height
1496 1491 1487 1482 1479 1477 1474 1473 1471 1469 1467 1466 1465 1463 1461 1459 1459 1460 1461 1463 1466 1469 1469 1471 1473 1476 1477 1479 1479 1480 1481 1481 1483 1486 1488 1489 1489 1488 1487 1485 1482 1480 1479 1479 1478 1476 1474
1492 1487 1482 1477 1473 1471 1469 1467 1466 1465 1464 1463 1461 1459 1458 1455 1455 1456 1456 1460 1463 1466 1467 1470 1471 1475 1477 1478 1480 1480 1482 1481 1485 1486 1488 1489 1490 1490 1488 1485 1484 1481 1480 1479 1477 1474 1474
1487 1481 1477 1472 1468 1466 1463 1463 1462 1461 1460 1458 1457 1456 1454 1453 1452 1451 1455 1456 1461 1464 1466 1468 1470 1474 1478 1478 1479 1481 1480 1481 1484 1486 1486 1488 1489 1489 1489 1488 1486 1484 1482 1479 1473 1472 1471
1482 1477 1471 1466 1463 1459 1457 1456 1458 1456 1456 1455 1454 1453 1452 1452 1451 1453 1454 1455 1459 1461 1464 1468 1471 1474 1475 1476 1478 1479 1479 1481 1484 1485 1485 1487 1489 1492 1491 1488 1487 1486 1482 1480 1464 1465 1464
1477 1471 1465 1461 1457 1454 1452 1451 1451 1452 1452 1452 1451 1451 1449 1449 1450 1452 1453 1455 1458 1462 1463 1468 1472 1474 1474 1475 1476 1476 1478 1480 1483 1484 1486 1488 1491 1490 1489 1488 1486 1480 1480 1470 1459 1457 1456
1470 1464 1459 1455 1452 1449 1448 1447 1448 1448 1449 1450 1449 1449 1447 1444 1445 1450 1452 1455 1461 1464 1467 1471 1473 1476 1475 1475 1474 1476 1477 1480 1482 1483 1486 1488 1488 1488 1486 1487 1487 1475 1471 1471 1465 1452 1449
1465 1459 1453 1447 1446 1444 1444 1443 1444 1444 1446 1447 1447 1448 1446 1441 1440 1448 1454 1458 1464 1468 1469 1469 1469 1471 1473 1474 1474 1475 1476 1479 1481 1483 1483 1484 1487 1483 1479 1478 1477 1476 1475 1468 1455 1445 1448
1460 1453 1446 1443 1441 1440 1439 1440 1437 1441 1443 1445 1446 1446 1447 1443 1445 1449 1453 1457 1460 1462 1467 1468 1469 1472 1472 1472 1473 1474 1476 1480 1480 1482 1484 1486 1478 1474 1474 1474 1474 1471 1468 1462 1450 1446 1444
1454 1449 1444 1439 1436 1433 1434 1435 1435 1438 1441 1443 1443 1444 1446 1448 1450 1452 1455 1457 1458 1460 1463 1469 1471 1472 1471 1473 1473 1473 1475 1478 1480 1478 1479 1479 1471 1471 1474 1472 1469 1463 1461 1457 1456 1454 1442
1451 1446 1442 1438 1435 1431 1431 1431 1432 1437 1440 1442 1442 1443 1444 1448 1455 1454 1457 1458 1458 1460 1462 1472 1471 1471 1472 1472 1473 1473 1475 1480 1479 1478 1477 1475 1470 1470 1468 1466 1463 1461 1448 1449 1455 1460 1447
1448 1445 1441 1437 1434 1432 1432 1432 1434 1437 1441 1442 1443 1445 1446 1452 1454 1456 1459 1459 1461 1462 1457 1471 1470 1471 1471 1473 1472 1473 1475 1477 1477 1475 1478 1468 1466 1465 1465 1455 1453 1451 1452 1445 1449 1449 1442
1445 1442 1440 1438 1435 1433 1433 1433 1436 1438 1441 1442 1444 1447 1450 1453 1455 1457 1458 1460 1463 1467 1477 1473 1469 1469 1470 1470 1469 1472 1475 1476 1474 1473 1471 1468 1463 1463 1456 1450 1448 1447 1451 1449 1450 1445 1432
1437 1440 1438 1437 1436 1435 1434 1435 1437 1439 1442 1445 1446 1449 1453 1457 1458 1459 1461 1463 1465 1460 1469 1471 1467 1465 1465 1462 1463 1465 1470 1471 1467 1466 1466 1461 1458 1456 1452 1449 1449 1449 1449 1435 1431 1429 1429
1433 1428 1434 1435 1436 1437 1436 1437 1439 1442 1444 1447 1450 1453 1457 1459 1461 1463 1464 1465 1462 1460 1462 1462 1462 1464 1464 1460 1460 1458 1464 1462 1461 1460 1463 1460 1464 1454 1449 1452 1451 1446 1440 1436 1431 1428 1431
1429 1424 1430 1434 1437 1440 1441 1441 1442 1445 1447 1449 1453 1456 1459 1462 1463 1466 1467 1461 1470 1467 1461 1462 1463 1462 1461 1460 1461 1455 1457 1458 1459 1458 1464 1461 1457 1447 1446 1443 1443 1435 1445 1439 1439 1421 1434
1431 1426 1431 1435 1439 1440 1441 1442 1444 1447 1450 1452 1454 1458 1463 1466 1467 1469 1467 1463 1468 1467 1464 1463 1459 1456 1454 1458 1456 1451 1455 1458 1459 1458 1461 1456 1454 1445 1442 1439 1438 1437 1432 1439 1441 1433 1440
1438 1433 1435 1438 1441 1441 1443 1445 1447 1449 1453 1457 1458 1464 1469 1469 1471 1469 1467 1468 1467 1469 1469 1467 1460 1456 1457 1458 1456 1455 1460 1460 1459 1459 1459 1454 1454 1448 1442 1447 1448 1438 1437 1430 1430 1424 1427
1451 1447 1447 1447 1448 1447 1446 1449 1452 1455 1457 1462 1463 1470 1473 1474 1474 1468 1468 1472 1471 1470 1470 1468 1465 1461 1460 1458 1460 1459 1462 1461 1460 1459 1455 1453 1452 1457 1449 1445 1446 1444 1439 1434 1452 1440 1438
1466 1462 1458 1458 1459 1458 1457 1457 1458 1461 1464 1465 1470 1476 1477 1476 1473 1468 1471 1472 1473 1470 1470 1468 1465 1464 1461 1461 1463 1462 1462 1459 1462 1460 1460 1457 1457 1467 1450 1452 1447 1445 1440 1436 1433 1441 1443
1476 1470 1467 1466 1465 1465 1465 1465 1466 1467 1470 1470 1473 1478 1480 1479 1476 1473 1472 1472 1472 1473 1471 1469 1467 1463 1460 1462 1460 1464 1463 1461 1457 1460 1460 1460 1461 1464 1478 1468 1463 1459 1448 1440 1442 1457 1455
1481 1478 1474 1474 1473 1472 1472 1473 1474 1474 1474 1474 1473 1478 1478 1479 1476 1474 1475 1472 1471 1470 1471 1469 1466 1465 1463 1463 1461 1464 1461 1459 1459 1458 1457 1456 1467 1470 1460 1459 1461 1457 1454 1449 1450 1449 1463
1487 1484 1480 1478 1478 1479 1480 1482 1481 1480 1479 1478 1476 1477 1477 1477 1476 1475 1477 1473 1471 1473 1474 1469 1469 1467 1467 1470 1471 1470 1468 1467 1466 1460 1457 1457 1468 1464 1460 1456 1455 1461 1458 1457 1456 1456 1463
1490 1489 1488 1486 1485 1484 1484 1485 1486 1486 1484 1481 1479 1477 1476 1478 1477 1476 1473 1472 1472 1474 1476 1475 1472 1469 1473 1475 1473 1471 1469 1468 1467 1466 1462 1461 1464 1469 1469 1461 1460 1466 1465 1462 1464 1462 1463
1489 1487 1489 1487 1485 1485 1486 1486 1486 1485 1484 1484 1482 1480 1477 1479 1476 1475 1474 1474 1473 1474 1473 1475 1474 1470 1476 1474 1473 1471 1470 1469 1468 1466 1463 1463 1462 1467 1477 1463 1480 1466 1463 1463 1465 1466 1466
1486 1486 1487 1488 1489 1487 1485 1486 1485 1483 1481 1480 1480 1480 1477 1475 1475 1474 1475 1476 1475 1476 1475 1475 1477 1477 1476 1474 1472 1470 1470 1468 1464 1466 1466 1465 1465 1469 1477 1470 1462 1462 1464 1464 1463 1468 1467
1486 1485 1486 1486 1483 1485 1486 1484 1484 1483 1482 1480 1480 1479 1478 1474 1475 1472 1474 1474 1475 1474 1476 1476 1476 1476 1477 1474 1472 1473 1477 1471 1469 1468 1466 1466 1465 1471 1471 1472 1465 1458 1461 1461 1461 1471 1466
1485 1483 1482 1480 1478 1479 1483 1484 1483 1483 1483 1482 1481 1480 1479 1476 1473 1473 1472 1472 1471 1471 1474 1476 1477 1477 1476 1474 1475 1477 1473 1472 1474 1470 1468 1470 1470 1475 1472 1476 1459 1457 1459 1460 1466 1468 1464
1482 1481 1479 1477 1479 1479 1478 1482 1483 1483 1482 1483 1482 1481 1481 1477 1473 1472 1472 1472 1472 1471 1472 1475 1478 1476 1476 1477 1475 1473 1474 1473 1473 1464 1464 1468 1471 1472 1468 1467 1475 1456 1461 1463 1460 1460 1461
1480 1478 1476 1476 1475 1478 1481 1485 1484 1482 1483 1482 1482 1481 1481 1480 1476 1473 1472 1473 1473 1474 1473 1473 1475 1473 1474 1475 1474 1473 1474 1473 1469 1471 1465 1473 1464 1466 1462 1459 1454 1454 1455 1456 1456 1458 1459